Showing default

ICEYE-X52, 64572

Orbit data source: Space-Track

ICEYE-X52, 64572 is a payload satellite owned by ICEYE (FI) in SSO that was launched on Mon, 23 Jun 2025 UTC via an FALCON 9 launch vehicle from the Air Force Western Test Range (AFWTR). Payload-class satellites include a variety of spacecraft equipped with specific instruments for various scientific and technological missions. These include communications satellites like Starlink; space stations such as the ISS; scientific satellites like the Hubble; Earth observation satellites from companies like Planet Labs, Umbra, and HawkEye 360; GPS; miniature CubeSats for education and research; and military/defense satellites.

Loading next visibility...
Identifier
64572, 2025-135AW
Orbit
SSO
Country
Flag of FIFI / FIN
Related business
Manufacturer
ICEYE
Mission
Operational Commercial Radar Imaging
Bus & Motor
ICEYE, Unknown motor
Mass
80 kg wet, 80 kg dry
Launch date (UTC)
2025-06-23 (10 months ago)
Launch vehicle
FALCON 9
Launch site
Air Force Western Test Range (AFWTR)
Object type
Payload
Rocket body
Debris
Shape & HBR
Box + 1 Pan, 2.4 m
Radar Cross Section
0.776 m², Medium (>0.1 m² and < 1m²)

Expand to show TLE details & history
Last TLE update: 6 hours ago

TLE from 6 hours ago
0 ICEYE-X52
1 64572U 25135AW  26120.16509541  .00001792  00000-0  17617-3 0  9996
2 64572  97.7685 234.9645 0003187 116.1619 243.9928 14.93381825 46714
Epoch: 2026-04-30T03:57Z
TLE epoch observation values (Epoch: 2026-04-30T03:57:44.243Z)
Latitude
-0.00009°
Longitude
-42.58546°
Altitude
591.418 km
Speed
7.564 km/s
True Right ascension
15h 39m 51s
True Declination
0° 00' 00"
Sunlit
Object was in full shadow at epoch
Visualization orbit readout
Latitude
Unknown
Longitude
Unknown
Altitude
Unknown
Speed
Unknown
Apparent Right ascension
Unknown
Apparent Declination
Unknown
Sunlit
N/A
Visualization observer readout
Local Sidereal Time
17:29:30
Azimuth
Unknown
Elevation
Unknown
Doppler factor
Unknown
Orbital elements
Apogee altitude
586.636 km
Perigee altitude
582.198 km
Semi-major axis
6,962.554 km
Eccentricity
0.00032
Inclination
97.7685°
RAAN
234.9645°
Arg. of periapsis
116.1619°
True anomaly
243.95998°
Mean anomaly
243.9928°
Eccentric anomaly
243.97639°
Mean motion
3.73586 °/min
Orbital period
96.36 mins
BSTAR
0.00017617
Loading maneuver chart data...
Computing Atmospheric mass density...
Loading historical data...
Loading historical data...
Loading historical data...
Loading historical data...
Loading historical data...
Loading historical data...
Loading historical data...

Documentation

Showing up to 5 results
|